Weather History for Newport, VT

Change the Weather History Date:

Sunday, October 9, 2011

  Actual Average Record
Temperature  
Mean Temperature 62 °F -  
Max Temperature 78 °F 56 °F 84 °F (1970)
Min Temperature 46 °F 38 °F 25 °F (1963)
Degree Days  
Heating Degree Days 3    
Growing Degree Days 12 (Base 50)    
Moisture  
Dew Point 44 °F    
Average Humidity 52    
Maximum Humidity 81    
Minimum Humidity 28    
Precipitation  
Precipitation 0.00 in - - ()
Sea Level Pressure  
Sea Level Pressure 30.32 in    
Wind  
Wind Speed 3 mph (WSW)    
Max Wind Speed 13 mph    
Max Gust Speed 21 mph    
Visibility 10 miles    
Events      
Averages and records for this station are not official NWS values.
T = Trace of Precipitation, MM = Missing Value Source: NWS Daily Summary

Daily Weather History Graph

Daily Weather History Graph

Search for Another Location

Airport:

Trip Planner

Search our weather history database for the weather conditions in past years. The results will help you decide how hot, cold, wet, or windy it might be!

Date:

Astronomy

Oct. 09, 2011 Rise Set
Actual Time 6:56 AM EDT 6:15 PM EDT
Civil Twilight 6:27 AM EDT 6:44 PM EDT
Nautical Twilight 5:53 AM EDT 7:18 PM EDT
Astronomical Twilight 5:19 AM EDT 7:52 PM EDT
Moon 4:53 PM EDT (10/9) 4:34 AM EDT (10/9)
Length of Visible Light 12h 17m
Length of Day
11h 18m
Waxing Gibbous, 95% of the Moon is Illuminated
Oct 9
Waxing Gibbous
Oct 11
Full
Oct 19
Last Quarter
Oct 26
New
Nov 2
First Quarter

Hourly Weather History & Observations

Time (EDT) Temp. Windchill Dew Point Humidity Pressure Visibility Wind Dir Wind Speed Gust Speed Precip Events Conditions
12:14 AM 59.0 °F - 42.8 °F 55% 30.35 in 10.0 mi South 3.5 mph - N/A   Clear
12:34 AM 55.4 °F - 42.8 °F 63% 30.35 in 10.0 mi Calm Calm - N/A   Clear
12:54 AM 55.4 °F - 42.8 °F 63% 30.35 in 10.0 mi Calm Calm - N/A   Clear
1:14 AM 55.4 °F - 42.8 °F 63% 30.35 in 10.0 mi Calm Calm - N/A   Clear
1:34 AM 59.0 °F - 42.8 °F 55% 30.35 in 10.0 mi SW 3.5 mph - N/A   Clear
1:54 AM 53.6 °F - 42.8 °F 67% 30.35 in 10.0 mi Calm Calm - N/A   Clear
2:14 AM 51.8 °F - 41.0 °F 67% 30.35 in 10.0 mi Calm Calm - N/A   Clear
2:34 AM 53.6 °F - 42.8 °F 67% 30.35 in 10.0 mi Calm Calm - N/A   Clear
3:14 AM 50.0 °F - 42.8 °F 76% 30.35 in 10.0 mi Calm Calm - N/A   Clear
3:34 AM 50.0 °F - 41.0 °F 71% 30.35 in 10.0 mi Calm Calm - N/A   Clear
3:54 AM 50.0 °F - 42.8 °F 76% 30.35 in 10.0 mi Calm Calm - N/A   Clear
4:14 AM 50.0 °F - 42.8 °F 76% 30.35 in 10.0 mi Calm Calm - N/A   Clear
4:34 AM 48.2 °F - 41.0 °F 76% 30.34 in 10.0 mi Calm Calm - N/A   Clear
4:54 AM 48.2 °F - 41.0 °F 76% 30.35 in 10.0 mi WSW 3.5 mph - N/A   Clear
5:14 AM 50.0 °F - 42.8 °F 76% 30.35 in 10.0 mi SW 4.6 mph - N/A   Clear
5:34 AM 50.0 °F - 42.8 °F 76% 30.36 in 10.0 mi SW 6.9 mph - N/A   Clear
5:54 AM 50.0 °F - 42.8 °F 76% 30.36 in 10.0 mi SW 6.9 mph - N/A   Clear
6:14 AM 50.0 °F - 41.0 °F 71% 30.36 in 10.0 mi Calm Calm - N/A   Clear
6:34 AM 48.2 °F - 41.0 °F 76% 30.36 in 10.0 mi SW 4.6 mph - N/A   Clear
6:54 AM 50.0 °F - 41.0 °F 71% 30.36 in 10.0 mi SW 4.6 mph - N/A   Clear
7:14 AM 46.4 °F 45.2 °F 39.2 °F 76% 30.36 in 10.0 mi NNE 3.5 mph - N/A   Clear
7:34 AM 46.4 °F - 41.0 °F 81% 30.36 in 10.0 mi Calm Calm - N/A   Clear
8:14 AM 53.6 °F - 44.6 °F 72% 30.36 in 10.0 mi Calm Calm - N/A   Clear
8:33 AM 55.4 °F - 46.4 °F 72% 30.36 in 10.0 mi Calm Calm - N/A   Clear
9:14 AM 60.8 °F - 50.0 °F 68% 30.37 in 10.0 mi Calm Calm - N/A   Clear
9:34 AM 68.0 °F - 51.8 °F 56% 30.36 in 10.0 mi Calm Calm - N/A   Clear
9:54 AM 69.8 °F - 50.0 °F 49% 30.36 in 10.0 mi SW 6.9 mph - N/A   Clear
10:14 AM 71.6 °F - 48.2 °F 43% 30.36 in 10.0 mi WSW 8.1 mph - N/A   Clear
10:34 AM 73.4 °F - 46.4 °F 38% 30.35 in 10.0 mi SW 11.5 mph - N/A   Clear
10:54 AM 73.4 °F - 44.6 °F 36% 30.35 in 10.0 mi WSW 12.7 mph 18.4 mph N/A   Clear
11:14 AM 73.4 °F - 44.6 °F 36% 30.34 in 10.0 mi WSW 10.4 mph - N/A   Clear
11:34 AM 75.2 °F - 42.8 °F 31% 30.34 in 10.0 mi WSW 6.9 mph - N/A   Clear
11:54 AM 75.2 °F - 44.6 °F 34% 30.33 in 10.0 mi WSW 9.2 mph - N/A   Clear
12:13 PM 77.0 °F - 42.8 °F 29% 30.33 in 10.0 mi WSW 5.8 mph - N/A   Clear
12:34 PM 77.0 °F - 42.8 °F 29% 30.32 in 10.0 mi West 8.1 mph - N/A   Clear
12:54 PM 77.0 °F - 41.0 °F 28% 30.31 in 10.0 mi WNW 6.9 mph - N/A   Clear
1:14 PM 77.0 °F - 42.8 °F 29% 30.30 in 10.0 mi WSW 4.6 mph - N/A   Clear
1:34 PM 77.0 °F - 44.6 °F 32% 30.30 in 10.0 mi WSW 9.2 mph - N/A   Clear
1:54 PM 78.8 °F - 44.6 °F 30% 30.29 in 10.0 mi SW 6.9 mph - N/A   Clear
2:14 PM 78.8 °F - 46.4 °F 32% 30.28 in 10.0 mi WSW 9.2 mph - N/A   Clear
2:34 PM 78.8 °F - 46.4 °F 32% 30.28 in 10.0 mi West 5.8 mph - N/A   Clear
2:54 PM 78.8 °F - 42.8 °F 28% 30.27 in 10.0 mi West 8.1 mph - N/A   Clear
3:13 PM 78.8 °F - 42.8 °F 28% 30.27 in 10.0 mi WSW 5.8 mph - N/A   Clear
3:34 PM 78.8 °F - 42.8 °F 28% 30.26 in 10.0 mi West 6.9 mph - N/A   Clear
3:54 PM 78.8 °F - 42.8 °F 28% 30.25 in 10.0 mi WSW 9.2 mph 20.7 mph N/A   Clear
4:34 PM 77.0 °F - 44.6 °F 32% 30.25 in 10.0 mi West 9.2 mph - N/A   Clear
4:53 PM 77.0 °F - 46.4 °F 34% 30.24 in 10.0 mi SW 9.2 mph - N/A   Clear
5:14 PM 75.2 °F - 46.4 °F 36% 30.24 in 10.0 mi WSW 5.8 mph - N/A   Clear
5:34 PM 73.4 °F - 46.4 °F 38% 30.24 in 10.0 mi SW 6.9 mph 17.3 mph N/A   Clear
5:54 PM 73.4 °F - 46.4 °F 38% 30.24 in 10.0 mi WSW 4.6 mph - N/A   Clear
6:14 PM 69.8 °F - 46.4 °F 43% 30.24 in 10.0 mi Calm Calm - N/A   Clear
6:34 PM 69.8 °F - 48.2 °F 46% 30.24 in 10.0 mi SSW 3.5 mph - N/A   Clear
6:53 PM 69.8 °F - 48.2 °F 46% 30.24 in 10.0 mi Calm Calm - N/A   Clear
7:14 PM 69.8 °F - 46.4 °F 43% 30.25 in 10.0 mi Calm Calm - N/A   Clear
7:34 PM 66.2 °F - 48.2 °F 52% 30.25 in 10.0 mi SSW 3.5 mph - N/A   Clear
7:54 PM 64.4 °F - 50.0 °F 59% 30.25 in 10.0 mi SSW 3.5 mph - N/A   Clear
8:14 PM 62.6 °F - 50.0 °F 63% 30.25 in 10.0 mi South 3.5 mph - N/A   Clear
8:34 PM 64.4 °F - 48.2 °F 56% 30.25 in 10.0 mi South 4.6 mph - N/A   Clear
8:54 PM 64.4 °F - 48.2 °F 56% 30.25 in 10.0 mi SSW 5.8 mph - N/A   Clear
9:14 PM 64.4 °F - 48.2 °F 56% 30.25 in 10.0 mi SSW 4.6 mph - N/A   Clear
9:34 PM 64.4 °F - 48.2 °F 56% 30.25 in 10.0 mi SW 5.8 mph - N/A   Clear
9:54 PM 62.6 °F - 46.4 °F 55% 30.25 in 10.0 mi SSW 5.8 mph - N/A   Clear
10:34 PM 62.6 °F - 48.2 °F 59% 30.25 in 10.0 mi SW 3.5 mph - N/A   Clear
10:54 PM 62.6 °F - 48.2 °F 59% 30.25 in 10.0 mi SW 6.9 mph - N/A   Clear
11:14 PM 64.4 °F - 50.0 °F 59% 30.24 in 10.0 mi WSW 9.2 mph - N/A   Clear
11:34 PM 64.4 °F - 48.2 °F 56% 30.24 in 10.0 mi SW 8.1 mph - N/A   Clear
11:54 PM 64.4 °F - 48.2 °F 56% 30.23 in 10.0 mi SW 6.9 mph - N/A   Clear